Wind_Speed
8 7 7 6 6 6 6 6 7 6 6 7 8 10 11 11 11 10 10 10 10 11 10 10 10 10 10 9 9 9 8 8 8 8 8 7 7 6 6 6 6 5 5 4 4 4 4 3 3
8 7 6 5 5 6 6 6 6 6 6 6 7 9 10 10 10 10 10 10 10 10 10 9 10 10 9 9 9 9 8 8 8 8 8 7 7 6 7 6 6 5 5 5 4 4 4 3 2
8 7 6 4 4 5 4 6 7 7 6 7 7 7 8 9 9 9 9 10 10 10 9 9 9 9 9 9 9 9 9 8 8 8 7 7 7 7 7 7 6 6 5 5 4 4 3 3 2
7 7 6 4 3 3 3 5 6 6 6 7 7 6 8 8 8 9 9 9 10 10 9 9 9 9 9 9 9 9 8 8 9 9 8 8 7 8 7 7 7 6 6 4 4 4 4 3 2
7 7 6 4 3 3 3 4 6 7 6 7 7 7 7 7 8 8 9 9 9 9 9 9 9 9 9 9 9 9 9 8 9 9 9 9 8 8 8 7 7 7 6 5 5 5 4 3 2
8 6 5 3 2 2 3 4 6 7 7 7 7 8 7 7 8 9 9 9 9 9 10 9 9 9 9 9 9 9 9 9 9 9 9 9 9 8 8 8 8 8 8 6 6 6 4 4 2
8 7 5 4 3 3 2 2 5 6 7 8 7 7 7 7 7 8 9 10 9 10 9 9 9 9 9 9 9 9 9 9 9 8 9 9 9 8 9 8 9 8 7 6 6 5 4 4 3
8 7 6 5 4 2 1 3 5 5 6 8 8 8 7 7 7 8 9 9 9 9 9 9 9 9 9 9 9 9 9 9 8 8 8 9 9 8 8 8 8 8 8 7 6 6 5 4 4
10 7 7 6 4 3 2 4 5 5 6 8 8 8 7 7 7 7 8 9 9 9 9 9 9 9 9 9 9 10 9 9 9 8 8 8 8 8 8 8 8 8 8 7 7 7 6 5 4
12 9 8 6 5 3 3 5 6 6 6 8 8 8 8 7 6 7 8 8 9 9 9 9 9 10 9 9 10 10 9 9 9 8 8 9 9 9 8 8 8 7 7 7 7 6 6 5 5
12 10 9 7 6 5 4 5 6 6 6 8 9 9 9 8 7 7 8 8 9 9 9 9 9 9 10 10 10 10 10 9 9 9 9 9 8 8 8 8 8 8 7 7 7 6 6 5 4
13 10 9 8 7 5 6 7 7 7 8 8 9 9 8 8 8 8 8 8 8 9 9 9 8 8 9 9 9 10 10 10 9 9 9 8 8 9 8 8 8 8 8 7 7 7 6 5 5
13 11 9 9 8 7 8 9 9 9 9 8 9 9 9 8 8 9 9 9 8 9 9 9 8 8 8 8 9 9 9 10 10 9 9 9 9 9 8 9 8 8 8 7 8 7 6 6 5
14 13 12 10 10 10 9 9 10 10 10 9 8 9 9 10 9 10 9 9 9 9 9 9 8 8 9 9 9 10 10 10 10 9 9 10 10 10 9 9 8 8 8 8 8 7 7 6 6
15 13 13 12 11 11 10 10 10 11 10 9 9 9 9 9 9 10 11 10 10 9 9 9 9 8 9 9 10 10 10 10 10 9 9 10 10 10 10 9 8 8 8 8 7 7 6 6 6
15 13 12 12 11 11 12 10 10 11 11 10 11 10 10 10 9 10 11 11 10 10 10 10 9 9 9 9 9 10 10 9 9 9 10 10 10 10 10 10 9 8 8 8 8 8 7 7 7
15 14 12 11 11 11 11 10 10 10 11 10 10 10 11 11 9 9 10 11 11 11 11 10 10 10 10 10 10 10 10 10 10 10 10 10 10 9 9 10 9 8 7 8 8 8 8 8 8
15 14 13 11 11 11 10 9 9 10 10 10 11 11 11 12 11 10 9 10 10 10 10 10 10 10 10 11 11 11 10 10 11 11 11 10 9 9 9 9 8 8 8 8 8 9 9 9 9
17 16 14 12 12 11 11 10 9 10 11 11 11 12 12 12 10 10 10 10 10 10 9 11 10 11 11 11 11 11 11 11 11 11 11 10 9 9 9 9 9 9 9 9 8 8 9 9 9
18 16 13 12 12 12 12 12 11 11 11 11 11 12 12 13 12 11 10 10 10 10 10 10 10 11 11 11 11 11 11 11 11 11 10 10 10 10 9 10 10 9 9 9 9 9 9 10 9
18 16 14 13 13 14 14 14 13 12 11 11 12 13 13 13 12 12 12 11 11 10 10 10 11 11 11 11 11 11 11 12 12 11 10 10 10 10 10 10 10 9 9 9 10 10 10 10 10
17 15 15 14 14 15 16 16 14 13 12 12 12 13 13 13 13 13 13 12 12 12 11 11 11 12 11 11 11 11 11 12 12 11 10 10 10 10 10 10 9 9 9 10 10 10 10 10 11
16 15 15 15 17 17 17 17 14 14 14 12 12 13 13 13 12 13 13 13 14 13 13 13 12 12 12 12 11 11 12 12 12 11 11 10 10 10 10 10 10 9 10 10 11 11 11 11 11
17 18 18 18 18 19 17 17 15 15 15 14 13 14 14 13 13 13 13 14 14 15 15 14 14 13 13 13 12 12 12 12 12 11 11 11 11 11 11 11 11 11 11 12 12 12 12 12 12
19 19 20 20 20 18 16 18 16 15 15 15 16 15 14 13 14 15 15 15 16 15 15 15 14 14 14 14 13 13 13 13 12 11 11 11 10 10 11 12 12 12 12 13 13 13 12 12 12
21 21 22 22 21 19 18 19 17 17 16 15 16 16 14 14 14 15 15 16 17 16 15 15 15 15 15 15 14 14 14 13 12 12 12 12 12 11 12 12 13 13 13 13 14 14 14 14 13
21 22 22 22 22 22 21 20 18 17 17 17 18 17 16 15 15 14 15 16 16 16 16 16 16 16 16 15 14 14 14 13 11 12 12 12 12 12 13 13 13 14 14 15 14 14 15 15 15
22 21 22 23 24 23 22 21 18 16 16 18 18 18 16 16 17 17 17 16 17 17 18 19 18 17 16 15 14 14 14 13 13 13 13 13 13 14 14 14 14 15 16 15 15 15 16 17 16
23 22 22 23 24 24 23 22 19 18 17 18 18 18 17 17 17 19 17 16 16 18 19 19 19 18 16 15 15 15 14 14 14 14 15 14 14 15 15 14 15 16 16 16 16 16 17 17 17
24 23 23 24 24 25 26 24 21 21 20 20 20 19 18 18 19 20 18 17 18 19 19 19 19 18 16 16 16 16 15 15 16 16 16 15 16 16 16 16 16 17 17 17 16 16 16 16 16
Wind_Direction
140 134 131 124 113 98 75 50 43 43 38 28 18 17 19 22 24 23 19 17 21 21 22 22 19 17 15 10 8 4 1 357 355 355 356 357 356 355 354 351 348 343 339 335 326 314 311 305 292
148 142 135 131 115 97 80 50 27 29 30 22 16 16 18 18 22 23 17 18 18 17 19 20 18 17 15 10 6 4 1 359 358 359 359 0 359 358 356 355 352 349 347 346 341 330 320 315 305
163 154 149 139 133 104 72 36 23 17 18 13 9 12 13 15 20 20 17 16 14 14 16 18 19 19 15 10 6 5 4 3 2 1 2 2 360 358 357 358 355 351 350 352 354 350 338 327 314
173 167 162 155 136 93 39 21 15 2 4 12 10 13 9 11 16 16 15 15 14 14 13 15 18 18 15 12 9 7 5 4 4 3 2 0 358 356 353 352 354 355 356 355 351 349 347 345 333
180 175 169 161 132 88 28 13 27 9 358 3 3 5 9 11 12 13 13 13 15 15 12 11 13 15 14 12 10 8 6 3 1 2 2 357 353 352 353 352 348 351 353 355 355 351 350 354 356
191 188 183 161 151 130 43 14 12 9 2 359 355 357 4 5 3 7 10 10 13 13 9 8 10 11 9 9 10 9 7 5 3 360 359 359 1 358 355 356 357 354 354 352 355 356 359 7 357
197 199 201 178 193 175 103 1 341 358 358 347 350 350 359 1 0 2 6 6 10 13 12 11 9 8 8 9 10 9 6 6 5 0 358 359 0 2 1 358 358 0 358 350 347 348 351 3 353
198 204 207 205 208 207 349 329 323 338 341 334 341 348 349 358 4 5 5 2 2 4 7 8 8 6 7 7 5 5 3 4 4 359 358 359 359 359 358 356 356 359 1 353 349 348 342 345 348
205 202 211 219 241 243 286 301 313 323 327 328 333 338 346 351 358 1 3 3 2 1 1 3 6 7 7 6 4 3 360 358 358 356 356 354 353 354 354 352 354 354 353 351 348 348 345 341 348
207 210 215 225 234 234 261 285 294 299 318 318 326 334 336 341 344 352 358 2 1 359 358 1 4 6 6 4 3 360 357 357 355 353 351 350 349 349 349 348 348 350 348 345 344 347 347 343 348
210 212 221 227 240 252 246 270 287 295 302 309 321 328 330 333 338 344 351 353 355 356 356 3 3 4 5 3 1 358 357 357 355 353 349 348 347 346 345 344 341 344 345 342 344 345 342 340 338
211 212 219 230 237 251 252 255 267 280 291 301 311 320 326 328 334 339 345 347 348 349 350 356 0 1 2 360 357 356 354 351 350 349 348 343 343 343 340 337 338 343 347 349 345 339 336 337 337
217 217 217 229 234 237 247 252 262 273 277 288 297 308 315 323 331 336 337 341 344 346 350 350 355 356 356 353 352 352 351 348 349 348 342 339 337 335 334 332 336 340 345 347 350 342 338 337 336
219 221 221 228 236 237 244 252 257 264 268 280 294 300 311 316 317 327 327 329 337 339 340 344 346 346 348 350 348 348 349 346 347 347 343 338 336 333 329 334 336 338 341 342 347 347 340 334 326
222 225 224 224 233 240 247 250 257 261 267 279 287 299 309 309 310 317 322 324 332 334 335 337 336 340 341 342 343 343 345 345 347 347 345 341 337 335 328 326 326 330 336 336 338 338 331 328 320
224 227 226 227 236 242 250 250 257 264 274 284 290 298 307 307 307 313 319 323 327 330 328 327 328 332 336 336 335 336 338 342 343 344 342 342 341 335 330 326 321 319 326 326 325 325 320 320 318
227 228 227 232 240 246 253 256 259 265 276 285 294 299 305 304 305 312 316 319 324 327 324 321 324 330 332 331 327 327 331 335 335 337 336 335 335 333 330 328 323 319 321 321 319 321 317 314 314
230 228 230 232 235 243 250 253 261 267 275 284 295 301 302 302 301 311 315 314 319 321 316 318 322 326 327 329 326 325 327 329 330 331 331 327 328 331 331 326 322 321 317 315 314 317 314 312 312
228 231 232 230 238 244 245 244 252 264 267 278 289 296 297 298 299 302 310 312 315 316 316 318 319 321 320 324 326 322 323 324 326 327 329 328 329 331 331 332 327 324 319 315 312 309 309 309 309
226 227 228 234 240 247 247 246 247 258 270 278 286 291 293 297 292 302 302 306 305 304 311 314 315 317 320 324 324 318 315 318 321 323 326 325 326 330 329 329 326 323 321 318 313 307 305 306 307
220 223 225 229 235 245 254 250 253 261 269 273 277 282 289 298 296 299 300 298 303 302 306 309 311 313 314 317 317 313 310 312 315 317 320 319 322 323 323 320 320 318 314 315 314 309 307 305 305
225 227 231 234 235 242 252 256 255 261 263 269 278 284 289 294 293 293 294 297 303 304 304 303 305 308 309 310 309 310 309 310 310 309 309 311 314 317 317 314 313 311 311 313 315 313 310 308 305
224 225 232 239 240 243 251 256 252 258 260 262 271 280 287 291 287 287 290 294 298 301 301 300 301 303 305 306 306 308 307 308 308 305 304 302 304 309 310 311 312 311 310 312 314 315 313 312 310
225 226 229 237 243 249 252 254 253 261 264 264 270 274 279 286 287 285 286 292 291 294 298 306 309 304 305 305 303 307 307 306 305 303 304 301 302 304 308 309 312 312 313 313 315 316 314 312 312
224 229 231 237 243 249 251 255 259 263 263 266 272 274 276 275 282 284 284 288 288 290 294 299 304 304 303 302 304 303 304 301 301 302 302 301 301 301 306 308 311 313 315 315 313 314 312 313 312
225 230 234 240 245 249 252 258 261 261 262 266 272 277 279 282 283 279 283 288 288 287 290 294 296 299 299 301 299 300 301 300 298 300 300 300 301 301 304 308 309 311 311 310 309 307 305 306 307
227 230 236 241 246 249 252 255 257 260 260 263 269 274 276 279 284 284 288 288 289 290 293 295 294 296 297 296 295 294 294 294 296 300 301 299 298 301 306 307 306 307 307 306 304 302 300 300 302
232 232 235 238 244 246 249 251 254 258 262 268 273 275 280 284 287 288 287 285 287 287 290 293 290 293 294 292 292 291 291 292 296 298 298 299 297 297 302 303 304 306 305 303 301 300 298 296 297
230 232 236 242 245 245 248 252 256 260 264 274 276 276 281 285 288 290 285 284 284 285 287 286 286 288 288 288 288 291 290 291 294 294 295 295 297 298 298 301 302 304 305 302 299 300 301 298 297
231 236 241 246 249 249 251 253 255 258 263 269 274 277 281 282 285 288 285 285 286 286 286 285 286 282 283 285 285 288 290 290 291 292 294 295 296 297 296 298 302 304 305 302 301 301 302 303 300
Height
5913 5913 5913 5914 5914 5914 5913 5913 5912 5912 5912 5912 5911 5910 5909 5908 5907 5908 5904 5901 5900 5898 5897 5896 5895 5894 5893 5892 5890 5889 5888 5887 5886 5885 5883 5882 5880 5879 5877 5876 5875 5873 5872 5871 5870 5870 5869 5868 5868
5913 5913 5914 5914 5914 5913 5914 5913 5913 5912 5912 5912 5911 5911 5910 5908 5907 5905 5903 5901 5900 5899 5898 5897 5896 5895 5893 5892 5891 5890 5888 5887 5886 5885 5883 5882 5881 5879 5878 5876 5875 5873 5872 5871 5870 5869 5868 5868 5867
5913 5913 5914 5914 5914 5913 5913 5913 5912 5913 5912 5912 5912 5911 5910 5908 5907 5905 5904 5902 5901 5900 5898 5897 5896 5895 5894 5892 5891 5890 5889 5887 5886 5885 5884 5882 5881 5879 5878 5876 5875 5873 5872 5871 5870 5869 5868 5867 5867
5912 5913 5914 5914 5913 5913 5913 5913 5912 5913 5912 5912 5912 5912 5910 5909 5907 5906 5904 5903 5901 5900 5899 5898 5897 5895 5894 5893 5891 5890 5889 5887 5886 5885 5884 5882 5881 5879 5878 5876 5875 5873 5872 5871 5870 5869 5868 5867 5867
5912 5913 5913 5913 5913 5913 5913 5912 5912 5913 5912 5912 5912 5912 5911 5910 5908 5907 5905 5903 5902 5901 5900 5898 5897 5896 5894 5893 5891 5890 5889 5887 5886 5885 5884 5882 5881 5879 5878 5876 5875 5873 5872 5871 5870 5869 5868 5867 5866
5912 5912 5913 5912 5912 5913 5913 5912 5912 5913 5912 5912 5912 5912 5911 5910 5908 5907 5906 5904 5902 5901 5900 5899 5897 5896 5895 5893 5891 5890 5889 5887 5886 5885 5884 5882 5881 5879 5878 5877 5875 5873 5872 5871 5870 5869 5868 5867 5866
5912 5912 5912 5912 5911 5912 5912 5912 5912 5913 5912 5912 5912 5911 5911 5910 5908 5907 5906 5904 5903 5901 5900 5899 5898 5896 5895 5893 5892 5890 5889 5887 5886 5885 5884 5882 5881 5879 5878 5876 5875 5873 5872 5871 5870 5869 5867 5866 5865
5910 5912 5911 5911 5911 5910 5911 5911 5911 5912 5912 5912 5911 5910 5910 5910 5908 5907 5906 5904 5903 5901 5900 5899 5898 5896 5895 5893 5892 5890 5889 5887 5886 5885 5883 5882 5880 5879 5878 5876 5875 5873 5872 5871 5869 5868 5867 5866 5865
5909 5912 5910 5910 5910 5910 5911 5911 5911 5911 5911 5911 5911 5910 5910 5909 5908 5907 5906 5904 5903 5901 5900 5899 5898 5896 5895 5893 5892 5890 5888 5887 5886 5885 5883 5881 5880 5879 5877 5876 5874 5873 5872 5870 5869 5868 5867 5865 5864
5908 5909 5909 5910 5909 5909 5910 5911 5911 5910 5910 5910 5910 5910 5909 5907 5907 5906 5905 5904 5903 5901 5900 5898 5897 5896 5894 5893 5891 5890 5888 5887 5885 5884 5882 5881 5880 5878 5877 5876 5874 5873 5871 5870 5869 5867 5866 5865 5864
5906 5907 5908 5908 5908 5909 5910 5910 5909 5909 5910 5910 5909 5909 5908 5906 5906 5905 5904 5903 5902 5901 5899 5898 5897 5895 5894 5893 5891 5889 5888 5886 5885 5883 5882 5881 5879 5878 5877 5875 5874 5872 5871 5870 5868 5867 5866 5865 5863
5904 5905 5905 5907 5907 5908 5908 5909 5908 5909 5909 5909 5909 5908 5907 5906 5905 5904 5903 5903 5902 5901 5899 5897 5896 5895 5894 5892 5891 5889 5887 5886 5884 5883 5881 5880 5879 5878 5876 5875 5873 5872 5871 5869 5868 5866 5865 5864 5863
5902 5903 5904 5905 5905 5906 5907 5907 5907 5907 5908 5908 5907 5907 5906 5905 5904 5904 5902 5901 5901 5900 5898 5897 5895 5894 5892 5891 5890 5888 5887 5885 5883 5882 5880 5879 5878 5877 5875 5874 5873 5871 5870 5869 5867 5865 5864 5863 5862
5900 5901 5902 5903 5903 5905 5906 5906 5906 5906 5906 5906 5906 5905 5905 5904 5903 5902 5901 5900 5899 5898 5897 5896 5894 5893 5891 5890 5889 5887 5886 5884 5883 5881 5880 5878 5877 5875 5874 5873 5872 5871 5869 5868 5866 5865 5863 5862 5861
5898 5899 5900 5901 5902 5902 5903 5904 5904 5904 5904 5904 5904 5904 5903 5902 5901 5901 5900 5899 5898 5897 5896 5895 5893 5892 5890 5889 5887 5886 5885 5883 5882 5880 5879 5877 5876 5874 5873 5872 5871 5870 5868 5867 5865 5864 5863 5861 5860
5896 5897 5898 5899 5900 5901 5903 5902 5903 5902 5901 5902 5902 5902 5901 5901 5900 5899 5899 5898 5896 5895 5894 5893 5892 5890 5889 5887 5886 5885 5883 5882 5881 5879 5878 5876 5875 5873 5872 5870 5869 5868 5867 5866 5864 5863 5862 5860 5859
5893 5894 5896 5897 5897 5898 5899 5900 5901 5900 5899 5900 5900 5900 5899 5898 5898 5897 5897 5896 5895 5894 5893 5891 5890 5889 5888 5887 5885 5884 5882 5881 5879 5878 5876 5875 5873 5871 5870 5869 5867 5866 5865 5864 5863 5862 5861 5859 5858
5890 5891 5892 5893 5894 5895 5896 5897 5898 5898 5898 5897 5898 5897 5896 5896 5896 5896 5895 5894 5893 5892 5891 5890 5888 5887 5886 5885 5883 5882 5880 5879 5878 5876 5874 5873 5871 5870 5868 5867 5866 5865 5863 5862 5861 5860 5859 5857 5856
5887 5888 5889 5890 5891 5892 5893 5894 5895 5895 5895 5895 5895 5894 5894 5894 5894 5894 5893 5892 5892 5891 5889 5888 5887 5886 5885 5883 5881 5880 5878 5877 5876 5874 5872 5871 5869 5868 5867 5865 5864 5863 5862 5860 5859 5858 5857 5856 5854
5883 5884 5885 5887 5888 5889 5889 5890 5892 5892 5893 5893 5893 5892 5892 5892 5892 5892 5891 5890 5890 5889 5887 5886 5886 5884 5883 5881 5879 5878 5876 5875 5874 5872 5870 5869 5868 5866 5865 5863 5862 5861 5859 5858 5857 5856 5855 5853 5852
5878 5881 5882 5884 5885 5886 5886 5887 5888 5889 5890 5890 5890 5890 5890 5889 5889 5888 5888 5887 5886 5885 5885 5885 5884 5882 5880 5879 5877 5876 5874 5873 5871 5870 5868 5867 5865 5864 5863 5861 5860 5859 5858 5856 5855 5853 5852 5851 5850
5875 5878 5879 5880 5882 5883 5884 5884 5885 5885 5886 5887 5887 5887 5887 5887 5887 5886 5885 5885 5884 5884 5882 5882 5880 5879 5878 5876 5874 5873 5871 5870 5869 5867 5865 5864 5863 5862 5860 5859 5858 5857 5855 5854 5852 5851 5849 5848 5846
5873 5875 5876 5877 5878 5879 5880 5880 5882 5882 5882 5883 5884 5884 5884 5884 5884 5883 5882 5882 5881 5881 5880 5878 5877 5876 5874 5873 5872 5870 5869 5867 5866 5864 5863 5861 5860 5859 5858 5857 5856 5854 5853 5851 5849 5848 5846 5845 5844
5869 5870 5872 5872 5873 5875 5877 5877 5878 5879 5879 5879 5880 5880 5880 5880 5880 5880 5879 5879 5879 5878 5876 5875 5874 5873 5872 5870 5868 5867 5866 5864 5863 5861 5860 5859 5857 5857 5855 5854 5853 5852 5850 5849 5847 5845 5844 5842 5841
5864 5866 5868 5868 5869 5871 5873 5872 5875 5875 5875 5875 5876 5876 5877 5877 5876 5876 5876 5876 5875 5874 5873 5872 5871 5870 5869 5867 5866 5864 5863 5861 5860 5858 5857 5856 5855 5854 5852 5851 5850 5849 5847 5846 5844 5842 5841 5839 5837
5860 5863 5864 5866 5866 5868 5869 5868 5871 5871 5871 5871 5872 5872 5873 5873 5873 5872 5872 5871 5871 5870 5870 5868 5867 5867 5865 5864 5862 5860 5859 5858 5857 5855 5854 5853 5852 5851 5849 5848 5847 5845 5844 5842 5841 5839 5837 5836 5834
5856 5858 5860 5862 5862 5863 5864 5865 5866 5866 5866 5867 5867 5868 5868 5868 5868 5868 5868 5867 5866 5866 5865 5865 5863 5862 5861 5860 5858 5857 5855 5854 5853 5852 5851 5850 5849 5847 5846 5844 5843 5842 5840 5839 5837 5835 5834 5832 5830
5852 5854 5855 5856 5857 5858 5859 5860 5861 5862 5862 5863 5863 5863 5863 5864 5864 5864 5863 5861 5861 5861 5861 5860 5859 5858 5857 5855 5854 5852 5851 5850 5849 5848 5847 5846 5845 5844 5842 5841 5839 5838 5836 5834 5832 5831 5829 5827 5825
5847 5848 5849 5851 5852 5853 5853 5857 5858 5858 5858 5858 5858 5859 5859 5859 5859 5859 5858 5857 5857 5856 5856 5855 5855 5853 5852 5851 5850 5848 5847 5847 5846 5845 5844 5842 5841 5840 5838 5836 5835 5833 5831 5829 5828 5826 5824 5822 5820
5841 5843 5844 5846 5847 5847 5848 5853 5852 5853 5853 5854 5854 5854 5854 5854 5855 5854 5853 5853 5853 5852 5851 5850 5849 5848 5847 5846 5845 5844 5843 5842 5841 5840 5839 5838 5837 5835 5834 5832 5830 5828 5826 5824 5822 5821 5819 5817 5815